OAS8734 SKBO-SKRG

Flight info

Callsign OAS8734
Flight time 0h 27m
Altitude 20000
Route TOBKI4R VASIL W36 NIRSO NIRSO3C
Aircraft A320/M-SDE3FGHIRWY/LB1

Departure

Time 2026-05-06 14:40
Airport El Dorado International Airport (SKBO)

Arrival

Time 2026-05-06 15:07
Airport Jose Maria Córdova International Airport (SKRG)
Time Latitude Longitude Altitude Speed Heading
2026-05-06 14:12 4.69755 -74.14495 8366 ft 0 kts 37°
2026-05-06 14:25 4.69753 -74.14497 8366 ft 1 kts 37°
2026-05-06 14:25 4.69739 -74.14508 8366 ft 2 kts 37°
2026-05-06 14:25 4.69724 -74.14518 8366 ft 3 kts 22°
2026-05-06 14:26 4.69708 -74.14521 8366 ft 3 kts 336°
2026-05-06 14:26 4.69694 -74.14510 8366 ft 3 kts 301°
2026-05-06 14:26 4.69684 -74.14493 8366 ft 2 kts 304°
2026-05-06 14:26 4.69682 -74.14490 8366 ft 2 kts 307°
2026-05-06 14:27 4.69693 -74.14504 8366 ft 3 kts 307°
2026-05-06 14:27 4.69705 -74.14520 8366 ft 3 kts 307°
2026-05-06 14:27 4.69712 -74.14529 8366 ft 0 kts 307°
2026-05-06 14:30 4.69713 -74.14530 8366 ft 1 kts 307°
2026-05-06 14:30 4.69725 -74.14546 8366 ft 4 kts 307°
2026-05-06 14:30 4.69750 -74.14579 8366 ft 7 kts 307°
2026-05-06 14:30 4.69774 -74.14611 8366 ft 5 kts 307°
2026-05-06 14:31 4.69788 -74.14630 8366 ft 2 kts 307°
2026-05-06 14:31 4.69802 -74.14648 8366 ft 4 kts 307°
2026-05-06 14:31 4.69821 -74.14673 8366 ft 5 kts 307°
2026-05-06 14:31 4.69846 -74.14706 8366 ft 7 kts 306°
2026-05-06 14:32 4.69875 -74.14748 8366 ft 8 kts 304°
2026-05-06 14:32 4.69914 -74.14801 8366 ft 10 kts 308°
2026-05-06 14:32 4.69939 -74.14851 8366 ft 7 kts 272°
2026-05-06 14:32 4.69920 -74.14883 8366 ft 5 kts 220°
2026-05-06 14:33 4.69888 -74.14909 8366 ft 7 kts 218°
2026-05-06 14:33 4.69854 -74.14950 8366 ft 9 kts 253°
2026-05-06 14:33 4.69879 -74.15008 8366 ft 10 kts 306°
2026-05-06 14:33 4.69924 -74.15067 8366 ft 12 kts 307°
2026-05-06 14:34 4.69977 -74.15138 8366 ft 14 kts 308°
2026-05-06 14:34 4.70038 -74.15218 8366 ft 15 kts 307°
2026-05-06 14:34 4.70104 -74.15306 8365 ft 17 kts 307°
2026-05-06 14:34 4.70179 -74.15405 8365 ft 19 kts 307°
2026-05-06 14:35 4.70263 -74.15516 8365 ft 21 kts 307°
2026-05-06 14:35 4.70354 -74.15636 8365 ft 22 kts 307°
2026-05-06 14:35 4.70447 -74.15758 8365 ft 22 kts 307°
2026-05-06 14:35 4.70541 -74.15882 8365 ft 23 kts 307°
2026-05-06 14:36 4.70637 -74.16008 8366 ft 23 kts 307°
2026-05-06 14:36 4.70733 -74.16136 8366 ft 23 kts 307°
2026-05-06 14:36 4.70831 -74.16266 8366 ft 24 kts 307°
2026-05-06 14:36 4.70931 -74.16398 8366 ft 24 kts 307°
2026-05-06 14:37 4.71033 -74.16532 8366 ft 24 kts 307°
2026-05-06 14:37 4.71136 -74.16668 8366 ft 23 kts 307°
2026-05-06 14:37 4.71203 -74.16773 8366 ft 13 kts 276°
2026-05-06 14:37 4.71151 -74.16832 8364 ft 11 kts 217°
2026-05-06 14:38 4.71146 -74.16836 8364 ft 1 kts 217°
2026-05-06 14:38 4.71128 -74.16849 8364 ft 6 kts 217°
2026-05-06 14:38 4.71081 -74.16880 8363 ft 11 kts 201°
2026-05-06 14:38 4.71002 -74.16853 8363 ft 13 kts 131°
2026-05-06 14:39 4.70991 -74.16838 8363 ft 0 kts 127°
2026-05-06 14:39 4.70904 -74.16722 8363 ft 55 kts 127°
2026-05-06 14:39 4.70541 -74.16241 8366 ft 118 kts 127°
2026-05-06 14:39 4.69938 -74.15445 8366 ft 167 kts 127°
2026-05-06 14:40 4.69183 -74.14462 8812 ft 179 kts 126°
2026-05-06 14:40 4.68364 -74.13499 9532 ft 185 kts 142°
2026-05-06 14:40 4.67170 -74.13104 10171 ft 193 kts 184°
2026-05-06 14:40 4.65924 -74.13690 10429 ft 214 kts 223°
2026-05-06 14:41 4.64964 -74.14925 10565 ft 236 kts 235°
2026-05-06 14:41 4.64085 -74.16390 10801 ft 253 kts 238°
2026-05-06 14:41 4.63201 -74.17923 11417 ft 255 kts 237°
2026-05-06 14:41 4.62284 -74.19455 12046 ft 258 kts 236°
2026-05-06 14:42 4.61688 -74.20493 12450 ft 262 kts 244°
2026-05-06 14:42 4.61085 -74.22964 12887 ft 289 kts 258°
2026-05-06 14:42 4.60839 -74.24307 12998 ft 304 kts 258°
2026-05-06 14:42 4.60581 -74.25701 13122 ft 319 kts 258°
2026-05-06 14:43 4.60029 -74.29016 13459 ft 350 kts 262°
2026-05-06 14:43 4.59832 -74.31515 13755 ft 366 kts 266°
2026-05-06 14:43 4.59740 -74.34092 14305 ft 373 kts 268°
2026-05-06 14:43 4.59679 -74.36705 14820 ft 377 kts 268°
2026-05-06 14:44 4.59676 -74.39340 15372 ft 380 kts 276°
2026-05-06 14:44 4.60462 -74.41858 15899 ft 382 kts 300°
2026-05-06 14:44 4.61878 -74.44108 16463 ft 383 kts 307°
2026-05-06 14:45 4.65247 -74.48286 17593 ft 388 kts 313°
2026-05-06 14:45 4.67020 -74.50336 18094 ft 391 kts 312°
2026-05-06 14:45 4.68788 -74.52417 18631 ft 393 kts 311°
2026-05-06 14:45 4.70536 -74.54542 19106 ft 396 kts 310°
2026-05-06 14:46 4.72266 -74.56706 19581 ft 399 kts 310°
2026-05-06 14:46 4.73994 -74.58896 20033 ft 402 kts 311°
2026-05-06 14:46 4.75952 -74.60880 20198 ft 399 kts 323°
2026-05-06 14:46 4.78124 -74.62548 20235 ft 386 kts 325°
2026-05-06 14:47 4.80253 -74.64138 20241 ft 379 kts 326°
2026-05-06 14:47 4.82373 -74.65703 20212 ft 378 kts 326°
2026-05-06 14:47 4.84487 -74.67254 20213 ft 377 kts 326°
2026-05-06 14:47 4.86591 -74.68832 20214 ft 378 kts 325°
2026-05-06 14:48 4.88671 -74.70442 20217 ft 378 kts 324°
2026-05-06 14:48 4.90740 -74.72073 20213 ft 378 kts 324°
2026-05-06 14:48 4.92762 -74.73759 20188 ft 379 kts 317°
2026-05-06 14:48 4.94470 -74.75782 20171 ft 382 kts 306°
2026-05-06 14:49 4.95771 -74.78103 20158 ft 383 kts 297°
2026-05-06 14:49 4.96928 -74.80506 20153 ft 383 kts 297°
2026-05-06 14:49 4.98096 -74.82907 20138 ft 383 kts 297°
2026-05-06 14:49 4.99272 -74.85307 20125 ft 384 kts 297°
2026-05-06 14:50 5.00435 -74.87676 20110 ft 384 kts 298°
2026-05-06 14:50 5.01613 -74.90078 20106 ft 384 kts 297°
2026-05-06 14:50 5.02784 -74.92479 20104 ft 384 kts 297°
2026-05-06 14:50 5.03955 -74.94885 20103 ft 384 kts 297°
2026-05-06 14:51 5.05124 -74.97289 20111 ft 383 kts 297°
2026-05-06 14:51 5.06293 -74.99694 20106 ft 384 kts 297°
2026-05-06 14:51 5.07463 -75.02100 20234 ft 384 kts 297°
2026-05-06 14:51 5.08632 -75.04504 20233 ft 384 kts 297°
2026-05-06 14:52 5.09802 -75.06910 20257 ft 384 kts 297°
2026-05-06 14:52 5.10972 -75.09315 20259 ft 384 kts 297°
2026-05-06 14:52 5.12142 -75.11720 20269 ft 384 kts 297°
2026-05-06 14:52 5.13314 -75.14124 20268 ft 384 kts 297°
2026-05-06 14:53 5.14483 -75.16523 20282 ft 384 kts 297°
2026-05-06 14:53 5.15787 -75.18849 20268 ft 382 kts 307°
2026-05-06 14:53 5.17456 -75.20907 20274 ft 380 kts 314°
2026-05-06 14:53 5.19213 -75.22890 20287 ft 380 kts 314°
2026-05-06 14:54 5.20969 -75.24876 20296 ft 380 kts 314°
2026-05-06 14:54 5.22727 -75.26861 20296 ft 380 kts 314°
2026-05-06 14:54 5.24486 -75.28845 20296 ft 380 kts 314°
2026-05-06 14:54 5.26242 -75.30832 20294 ft 380 kts 314°
2026-05-06 14:55 5.27997 -75.32819 20285 ft 380 kts 314°
2026-05-06 14:55 5.29750 -75.34804 20228 ft 378 kts 314°
2026-05-06 14:55 5.31489 -75.36745 19957 ft 369 kts 317°
2026-05-06 14:55 5.33420 -75.38315 19720 ft 358 kts 331°
2026-05-06 14:56 5.35621 -75.39406 19484 ft 350 kts 344°
2026-05-06 14:56 5.37992 -75.39991 19240 ft 344 kts 356°
2026-05-06 14:56 5.40329 -75.40149 19016 ft 341 kts
2026-05-06 14:56 5.42701 -75.40276 18797 ft 342 kts
2026-05-06 14:57 5.45058 -75.40408 18522 ft 337 kts
2026-05-06 14:57 5.47396 -75.40541 18092 ft 336 kts
2026-05-06 14:57 5.49717 -75.40672 17695 ft 332 kts
2026-05-06 14:57 5.52020 -75.40801 17311 ft 331 kts
2026-05-06 14:58 5.54325 -75.40929 16920 ft 332 kts
2026-05-06 14:58 5.56631 -75.41056 16532 ft 332 kts
2026-05-06 14:58 5.58934 -75.41183 16150 ft 331 kts
2026-05-06 14:58 5.61231 -75.41309 15750 ft 331 kts
2026-05-06 14:59 5.63532 -75.41436 15367 ft 331 kts
2026-05-06 14:59 5.65801 -75.41562 14997 ft 331 kts
2026-05-06 14:59 5.68100 -75.41689 14623 ft 331 kts
2026-05-06 14:59 5.70406 -75.41815 14234 ft 332 kts
2026-05-06 15:00 5.72688 -75.41941 14054 ft 322 kts
2026-05-06 15:00 5.74859 -75.42066 13926 ft 303 kts
2026-05-06 15:00 5.76911 -75.42187 13798 ft 288 kts
2026-05-06 15:00 5.78870 -75.42260 13494 ft 276 kts
2026-05-06 15:01 5.80734 -75.42131 13307 ft 261 kts
2026-05-06 15:01 5.82536 -75.42084 13027 ft 261 kts
2026-05-06 15:01 5.84378 -75.42096 12554 ft 264 kts
2026-05-06 15:01 5.86198 -75.42115 12216 ft 259 kts
2026-05-06 15:02 5.87976 -75.42128 11914 ft 253 kts
2026-05-06 15:02 5.89710 -75.42139 11611 ft 247 kts
2026-05-06 15:02 5.91390 -75.42151 11339 ft 236 kts
2026-05-06 15:02 5.92973 -75.42162 11055 ft 219 kts
2026-05-06 15:03 5.94447 -75.42172 10820 ft 205 kts
2026-05-06 15:03 5.95862 -75.42180 10562 ft 203 kts
2026-05-06 15:03 5.97269 -75.42188 10344 ft 202 kts
2026-05-06 15:03 5.98671 -75.42197 10115 ft 200 kts
2026-05-06 15:04 6.00049 -75.42206 9850 ft 198 kts
2026-05-06 15:04 6.01397 -75.42215 9603 ft 187 kts
2026-05-06 15:04 6.02652 -75.42224 9378 ft 179 kts
2026-05-06 15:04 6.03873 -75.42231 9164 ft 175 kts
2026-05-06 15:05 6.05077 -75.42239 8953 ft 172 kts
2026-05-06 15:05 6.06275 -75.42246 8738 ft 173 kts
2026-05-06 15:05 6.07487 -75.42254 8535 ft 174 kts
2026-05-06 15:05 6.08692 -75.42262 8292 ft 174 kts
2026-05-06 15:06 6.09897 -75.42269 8091 ft 172 kts
2026-05-06 15:06 6.11099 -75.42283 7815 ft 174 kts
2026-05-06 15:06 6.12311 -75.42302 7543 ft 177 kts
2026-05-06 15:06 6.13549 -75.42290 7329 ft 177 kts
2026-05-06 15:07 6.14768 -75.42292 7090 ft 173 kts
2026-05-06 15:07 6.15930 -75.42303 6980 ft 154 kts
2026-05-06 15:07 6.16731 -75.42309 6989 ft 70 kts 359°
2026-05-06 15:07 6.17035 -75.42372 7014 ft 17 kts 315°
2026-05-06 15:08 6.17125 -75.42425 7017 ft 15 kts 332°
2026-05-06 15:08 6.17181 -75.42467 7019 ft 6 kts 293°
2026-05-06 15:08 6.17185 -75.42506 7017 ft 7 kts 272°
2026-05-06 15:08 6.17183 -75.42580 7018 ft 12 kts 268°
2026-05-06 15:09 6.17149 -75.42617 7017 ft 9 kts 185°
2026-05-06 15:09 6.17062 -75.42633 7019 ft 14 kts 209°
2026-05-06 15:09 6.16984 -75.42689 7018 ft 14 kts 217°
2026-05-06 15:09 6.16948 -75.42737 7021 ft 5 kts 270°
2026-05-06 15:10 6.16966 -75.42758 7018 ft 3 kts 324°
2026-05-06 15:10 6.16977 -75.42765 7018 ft 1 kts 328°
2026-05-06 15:10 6.16980 -75.42767 7018 ft 1 kts 328°